Date String (YYYY-MM-DD hh:mm:ss) UTC,Instrument flags,absolute air pressure of the measurement (hPa),sample flow rate (lpm),inlet stack bypass flow (lpm),air temperature of the measurement (°C),ambient temperature measured by the external sensor (°C),aerosol sample conditioner tube jacket temperature (°C),OPC LED temperature (°C),internal box temperature (°C),relative humidity of the measurement (%),span deviation,mass concentration of particles derived from Lorenz-Mie calculation of OPC scattering (μg/m³),mass concentration of particles derived from Lorenz-Mie calculation of OPC scattering (μg/m³),mass concentration of particles derived from Lorenz-Mie calculation of OPC scattering (μg/m³)
DateTimeUTC,F1_M11,P_M11,Q1_M11,Q2_M11,T1_M11,T2_M11,T3_M11,T4_M11,T5_M11,U1_M11,ZSPAN_M11,X2_M11,X0_M11,X1_M11
2024-03-20 04:00:00,SystemResetWarning,0827.9,5.01,000.00,024.3,023.2,000.0,033.0,026.1,13.0,0000.0,0002.68,0009.05,0001.67
2024-03-20 04:01:00,SystemResetWarning,0827.4,4.99,000.00,024.3,023.2,000.0,033.0,026.1,13.0,0000.0,0002.68,0009.34,0001.66
2024-03-20 04:02:00,SystemResetWarning,0827.5,4.99,000.00,024.2,023.2,000.0,033.0,026.1,12.8,0000.0,0002.69,0009.51,0001.64
2024-03-20 04:03:00,SystemResetWarning,0827.6,4.99,000.00,024.2,023.2,000.0,033.0,026.1,12.7,0000.0,0002.69,0009.06,0001.61
2024-03-20 04:04:00,SystemResetWarning,0827.6,5.00,000.00,024.2,023.2,000.0,033.0,026.1,12.7,0000.0,0002.57,0008.59,0001.58
2024-03-20 04:05:00,SystemResetWarning,0827.7,5.00,000.00,024.2,023.2,000.0,033.0,026.1,12.7,0000.0,0002.56,0008.43,0001.57
2024-03-20 04:06:00,SystemResetWarning,0827.7,5.01,000.00,024.2,023.2,000.0,033.0,026.1,12.6,0000.0,0002.62,0008.68,0001.56
2024-03-20 04:07:00,SystemResetWarning,0828.0,5.01,000.00,024.2,023.2,000.0,032.9,026.1,12.7,0000.0,0002.63,0009.11,0001.54
2024-03-20 04:08:00,SystemResetWarning,0827.7,5.00,000.00,024.2,023.2,000.0,032.9,026.0,12.7,0000.0,0002.64,0009.09,0001.52
2024-03-20 04:09:00,SystemResetWarning,0827.7,5.01,000.00,024.2,023.1,000.0,032.9,026.0,12.7,0000.0,0002.71,0009.30,0001.53
2024-03-20 04:10:00,SystemResetWarning,0827.6,5.00,000.00,024.1,023.1,000.0,032.9,026.0,12.6,0000.0,0002.67,0008.87,0001.53
2024-03-20 04:11:00,SystemResetWarning,0827.7,4.99,000.00,024.1,023.1,000.0,032.9,026.0,12.6,0000.0,0002.65,0008.60,0001.54
2024-03-20 04:12:00,SystemResetWarning,0827.7,4.99,000.00,024.1,023.1,000.0,032.9,026.0,12.8,0000.0,0002.66,0008.32,0001.54
2024-03-20 04:13:00,SystemResetWarning,0827.8,5.02,000.00,024.1,023.1,000.0,032.9,026.0,12.8,0000.0,0002.68,0008.53,0001.55
2024-03-20 04:14:00,SystemResetWarning,0827.8,5.01,000.00,024.1,023.1,000.0,032.9,026.0,12.7,0000.0,0002.70,0008.04,0001.56
2024-03-20 04:15:00,SystemResetWarning,0828.0,4.99,000.00,024.1,023.1,000.0,032.8,026.0,12.6,0000.0,0002.74,0008.06,0001.58
2024-03-20 04:16:00,SystemResetWarning,0827.6,5.00,000.00,024.1,023.1,000.0,032.8,026.0,12.8,0000.0,0002.79,0007.97,0001.61
2024-03-20 04:17:00,SystemResetWarning,0827.5,5.00,000.00,024.1,023.1,000.0,032.8,025.9,12.8,0000.0,0002.83,0007.89,0001.63
2024-03-20 04:18:00,SystemResetWarning,0827.5,4.99,000.00,024.1,023.1,000.0,032.8,025.9,12.8,0000.0,0002.87,0007.44,0001.65
2024-03-20 04:19:00,SystemResetWarning,0827.6,4.99,000.00,024.0,023.1,000.0,032.8,025.9,12.9,0000.0,0002.91,0007.12,0001.68
2024-03-20 04:20:00,SystemResetWarning,0827.8,5.02,000.00,024.0,023.1,000.0,032.8,025.9,12.9,0000.0,0002.91,0006.22,0001.69
2024-03-20 04:21:00,SystemResetWarning,0827.5,5.00,000.00,024.0,023.0,000.0,032.8,025.9,12.9,0000.0,0002.97,0006.67,0001.71
2024-03-20 04:22:00,SystemResetWarning,0827.5,4.99,000.00,024.0,023.0,000.0,032.8,025.9,13.0,0000.0,0002.96,0007.54,0001.71
2024-03-20 04:23:00,SystemResetWarning,0827.4,5.00,000.00,024.0,023.0,000.0,032.7,025.9,13.1,0000.0,0002.91,0009.01,0001.70
2024-03-20 04:24:00,SystemResetWarning,0827.8,5.00,000.00,024.0,023.0,000.0,032.7,025.9,13.0,0000.0,0002.93,0008.98,0001.71
2024-03-20 04:25:00,SystemResetWarning,0827.6,5.00,000.00,024.0,023.0,000.0,032.7,025.9,12.9,0000.0,0002.96,0009.78,0001.72
2024-03-20 04:26:00,SystemResetWarning,0827.5,5.00,000.00,024.0,023.0,000.0,032.7,025.9,13.0,0000.0,0002.96,0009.91,0001.74
2024-03-20 04:27:00,SystemResetWarning,0827.4,5.00,000.00,023.9,023.0,000.0,032.7,025.8,13.0,0000.0,0002.97,0009.99,0001.75
2024-03-20 04:28:00,SystemResetWarning,0827.7,5.00,000.00,023.9,023.0,000.0,032.7,025.8,13.0,0000.0,0002.95,0010.07,0001.74
2024-03-20 04:29:00,SystemResetWarning,0827.7,5.00,000.00,023.9,022.9,000.0,032.7,025.7,13.0,0000.0,0003.03,0010.54,0001.74
2024-03-20 04:30:00,SystemResetWarning,0827.8,5.01,000.00,023.9,022.9,000.0,032.7,025.7,13.0,0000.0,0003.07,0010.65,0001.73
2024-03-20 04:31:00,SystemResetWarning,0827.8,4.99,000.00,023.9,022.9,000.0,032.6,025.7,13.1,0000.0,0003.08,0010.85,0001.74
2024-03-20 04:32:00,SystemResetWarning,0828.0,4.99,000.00,023.9,022.9,000.0,032.6,025.7,13.0,0000.0,0003.10,0011.61,0001.73
2024-03-20 04:33:00,SystemResetWarning,0828.0,5.00,000.00,023.9,022.9,000.0,032.6,025.7,13.0,0000.0,0003.11,0010.83,0001.73
2024-03-20 04:34:00,SystemResetWarning,0827.8,4.99,000.00,023.9,022.9,000.0,032.6,025.7,12.9,0000.0,0003.12,0009.61,0001.73
2024-03-20 04:35:00,SystemResetWarning,0828.0,5.00,000.00,023.8,022.9,000.0,032.6,025.7,12.9,0000.0,0003.12,0008.87,0001.72
2024-03-20 04:36:00,SystemResetWarning,0827.9,5.00,000.00,023.8,022.9,000.0,032.6,025.7,12.8,0000.0,0003.02,0008.09,0001.71
2024-03-20 04:37:00,SystemResetWarning,0828.0,5.00,000.00,023.8,022.9,000.0,032.6,025.6,12.8,0000.0,0003.02,0007.81,0001.68
2024-03-20 04:38:00,SystemResetWarning,0827.8,5.00,000.00,023.8,022.8,000.0,032.6,025.6,12.8,0000.0,0002.95,0007.70,0001.65
2024-03-20 04:39:00,SystemResetWarning,0827.8,5.00,000.00,023.8,022.8,000.0,032.6,025.6,12.6,0000.0,0002.89,0007.55,0001.63
2024-03-20 04:40:00,SystemResetWarning,0827.8,5.00,000.00,023.8,022.8,000.0,032.5,025.6,12.5,0000.0,0002.82,0006.99,0001.61
2024-03-20 04:41:00,SystemResetWarning,0827.4,5.00,000.00,023.8,022.8,000.0,032.5,025.6,12.5,0000.0,0002.78,0006.89,0001.58
2024-03-20 04:42:00,SystemResetWarning,0827.7,5.00,000.00,023.8,022.8,000.0,032.5,025.6,12.3,0000.0,0002.73,0006.59,0001.53
2024-03-20 04:43:00,SystemResetWarning,0827.5,5.00,000.00,023.8,022.8,000.0,032.5,025.6,12.4,0000.0,0002.62,0004.90,0001.49
2024-03-20 04:44:00,SystemResetWarning,0827.6,5.00,000.00,023.7,022.8,000.0,032.5,025.6,12.5,0000.0,0002.55,0004.78,0001.45
2024-03-20 04:45:00,SystemResetWarning,0827.5,5.00,000.00,023.7,022.8,000.0,032.5,025.6,12.5,0000.0,0002.52,0004.69,0001.42
2024-03-20 04:46:00,SystemResetWarning,0827.5,5.00,000.00,023.7,022.8,000.0,032.5,025.5,12.6,0000.0,0002.44,0004.56,0001.38
2024-03-20 04:47:00,SystemResetWarning,0827.5,5.00,000.00,023.7,022.8,000.0,032.4,025.5,12.4,0000.0,0002.48,0004.80,0001.36
2024-03-20 04:48:00,SystemResetWarning,0827.6,5.00,000.00,023.7,022.8,000.0,032.4,025.5,12.5,0000.0,0002.48,0004.92,0001.34
2024-03-20 04:49:00,SystemResetWarning,0827.7,5.01,000.00,023.7,022.8,000.0,032.4,025.5,12.4,0000.0,0002.45,0004.90,0001.31
2024-03-20 04:50:00,SystemResetWarning,0827.7,4.99,000.00,023.7,022.8,000.0,032.4,025.5,12.6,0000.0,0002.39,0004.75,0001.28
2024-03-20 04:51:00,SystemResetWarning,0827.7,4.99,000.00,023.7,022.7,000.0,032.4,025.5,14.0,0000.0,0002.31,0005.37,0001.26
2024-03-20 04:52:00,SystemResetWarning,0827.7,5.00,000.00,023.7,022.7,000.0,032.4,025.5,14.0,0000.0,0002.27,0007.18,0001.29
2024-03-20 04:53:00,SystemResetWarning,0827.8,5.00,000.00,023.7,022.6,000.0,032.4,025.5,14.6,0000.0,0002.31,0007.22,0001.32
2024-03-20 04:54:00,SystemResetWarning,0827.8,4.99,000.00,023.6,022.6,000.0,032.4,025.5,14.6,0000.0,0002.41,0007.36,0001.37
2024-03-20 04:55:00,SystemResetWarning,0827.8,5.00,000.00,023.6,022.6,000.0,032.3,025.5,14.3,0000.0,0002.48,0007.48,0001.40
2024-03-20 04:56:00,SystemResetWarning,0827.7,5.00,000.00,023.6,022.6,000.0,032.3,025.5,13.7,0000.0,0002.55,0007.58,0001.41
2024-03-20 04:57:00,SystemResetWarning,0827.7,5.00,000.00,023.6,022.6,000.0,032.3,025.5,12.7,0000.0,0002.60,0007.73,0001.43
2024-03-20 04:58:00,SystemResetWarning,0827.7,5.00,000.00,023.6,022.7,000.0,032.3,025.5,12.7,0000.0,0002.59,0007.81,0001.43
2024-03-20 04:59:00,SystemResetWarning,0827.8,5.00,000.00,023.6,022.7,000.0,032.3,025.5,12.5,0000.0,0002.59,0007.81,0001.44
